| time (UTC) | temp F | wind direction | speed MPH | gust MPH | rain 1hr in | rain 24hr in | rain mn in | humidity % | barometer mb |
| 20260905184012 | 64 | 105 | 1.0 | 4.0 | 0.00 | 0.00 | 0.00 | 82 | 1011.4 |
| 20260905183507 | 65 | 115 | 1.0 | 4.0 | 0.00 | 0.00 | 0.00 | 83 | 1011.4 |
| 20260905182956 | 65 | 115 | 1.0 | 4.0 | 0.00 | 0.00 | 0.00 | 82 | 1011.4 |
| 20260905182450 | 65 | 138 | 2.0 | 5.0 | 0.00 | 0.00 | 0.00 | 81 | 1011.3 |
| 20260905181944 | 66 | 136 | 2.0 | 6.0 | 0.00 | 0.00 | 0.00 | 82 | 1011.3 |
| 20260905181434 | 66 | 117 | 2.0 | 8.0 | 0.00 | 0.00 | 0.00 | 81 | 1011.3 |
| 20260905180928 | 66 | 311 | 2.0 | 8.0 | 0.00 | 0.00 | 0.00 | 80 | 1011.4 |
| 20260905180422 | 65 | 341 | 2.0 | 7.0 | 0.00 | 0.00 | 0.00 | 78 | 1011.5 |
| 20260905175912 | 65 | 65 | 3.0 | 8.0 | 0.00 | 0.00 | 0.00 | 79 | 1011.5 |
| 20260905175406 | 65 | 22 | 3.0 | 8.0 | 0.00 | 0.00 | 0.00 | 81 | 1011.5 |
| 20260905174900 | 64 | 84 | 3.0 | 7.0 | 0.00 | 0.00 | 0.00 | 81 | 1011.4 |
| 20260905174350 | 64 | 43 | 3.0 | 8.0 | 0.00 | 0.00 | 0.00 | 81 | 1011.5 |
| 20260905173844 | 64 | 53 | 2.0 | 7.0 | 0.00 | 0.00 | 0.00 | 83 | 1011.4 |
| 20260905173338 | 64 | 86 | 3.0 | 11.0 | 0.00 | 0.00 | 0.00 | 83 | 1011.3 |
| 20260905172828 | 65 | 348 | 3.0 | 11.0 | 0.00 | 0.00 | 0.00 | 81 | 1011.3 |
| 20260905172320 | 66 | 175 | 3.0 | 10.0 | 0.00 | 0.00 | 0.00 | 79 | 1011.3 |
| 20260905171814 | 67 | 86 | 3.0 | 10.0 | 0.00 | 0.00 | 0.00 | 76 | 1011.2 |
| 20260905171303 | 68 | 138 | 3.0 | 8.0 | 0.00 | 0.00 | 0.00 | 76 | 1011.3 |
| 20260905170756 | 68 | 132 | 2.0 | 8.0 | 0.00 | 0.00 | 0.00 | 77 | 1011.3 |
| 20260905170250 | 67 | 0 | 2.0 | 4.0 | 0.00 | 0.00 | 0.00 | 80 | 1011.4 |
| 20260905165739 | 66 | 268 | 2.0 | 4.0 | 0.00 | 0.00 | 0.00 | 81 | 1011.3 |
| 20260905165232 | 65 | 123 | 1.0 | 3.0 | 0.00 | 0.00 | 0.00 | 82 | 1011.4 |
| 20260905164726 | 66 | 130 | 2.0 | 5.0 | 0.00 | 0.00 | 0.00 | 86 | 1011.4 |
| 20260905164216 | 65 | 135 | 2.0 | 5.0 | 0.00 | 0.00 | 0.00 | 83 | 1011.4 |
| 20260905163710 | 65 | 150 | 2.0 | 5.0 | 0.00 | 0.00 | 0.00 | 84 | 1011.4 |
| 20260905163204 | 65 | 141 | 1.0 | 5.0 | 0.00 | 0.00 | 0.00 | 83 | 1011.4 |
| 20260905162920 | 65 | 165 | 1.0 | 5.0 | 0.00 | 0.00 | 0.00 | 83 | 1011.4 |
| 20260905162152 | 65 | 167 | 2.0 | 5.0 | 0.00 | 0.00 | 0.00 | 83 | 1011.5 |
| 20260905161642 | 65 | 99 | 2.0 | 7.0 | 0.00 | 0.00 | 0.00 | 82 | 1011.6 |
| 20260905161132 | 65 | 342 | 3.0 | 8.0 | 0.00 | 0.00 | 0.00 | 81 | 1011.6 |
| 20260905160120 | 66 | 312 | 2.0 | 5.0 | 0.00 | 0.00 | 0.00 | 83 | 1011.5 |
| 20260905155611 | 64 | 324 | 2.0 | 6.0 | 0.00 | 0.00 | 0.00 | 83 | 1011.6 |
| 20260905155103 | 64 | 241 | 2.0 | 7.0 | 0.00 | 0.00 | 0.00 | 83 | 1011.6 |
| 20260905154558 | 64 | 317 | 1.0 | 7.0 | 0.00 | 0.00 | 0.00 | 82 | 1011.7 |
| 20260905154047 | 64 | 266 | 2.0 | 6.0 | 0.00 | 0.00 | 0.00 | 81 | 1011.7 |
| 20260905153542 | 65 | 28 | 2.0 | 6.0 | 0.00 | 0.00 | 0.00 | 82 | 1011.7 |
| 20260905153036 | 65 | 109 | 2.0 | 5.0 | 0.00 | 0.00 | 0.00 | 83 | 1011.7 |
| 20260905152527 | 65 | 70 | 2.0 | 6.0 | 0.00 | 0.00 | 0.00 | 83 | 1011.7 |
| 20260905152020 | 64 | 256 | 2.0 | 6.0 | 0.00 | 0.00 | 0.00 | 86 | 1011.8 |
| 20260905151514 | 63 | 9 | 1.0 | 5.0 | 0.00 | 0.00 | 0.00 | 87 | 1011.8 |
| 20260905151004 | 63 | 236 | 1.0 | 4.0 | 0.00 | 0.00 | 0.00 | 90 | 1011.8 |
| 20260905150457 | 62 | 344 | 2.0 | 4.0 | 0.00 | 0.00 | 0.00 | 88 | 1012.0 |
| 20260905145952 | 62 | 22 | 1.0 | 4.0 | 0.00 | 0.00 | 0.00 | 89 | 1011.9 |
| 20260905145442 | 62 | 309 | 1.0 | 5.0 | 0.00 | 0.00 | 0.00 | 90 | 1011.9 |
| 20260905144936 | 62 | 307 | 2.0 | 5.0 | 0.00 | 0.00 | 0.00 | 90 | 1011.8 |
| 20260905144430 | 62 | 325 | 2.0 | 6.0 | 0.00 | 0.00 | 0.00 | 90 | 1011.7 |
| 20260905143920 | 62 | 236 | 3.0 | 8.0 | 0.00 | 0.00 | 0.00 | 89 | 1011.5 |
| 20260905143414 | 62 | 309 | 3.0 | 8.0 | 0.00 | 0.00 | 0.00 | 88 | 1011.5 |
| 20260905142908 | 62 | 67 | 2.0 | 7.0 | 0.00 | 0.00 | 0.00 | 90 | 1011.6 |
| 20260905142358 | 61 | 328 | 2.0 | 8.0 | 0.00 | 0.00 | 0.00 | 91 | 1011.6 |
| 20260905141852 | 61 | 317 | 2.0 | 8.0 | 0.00 | 0.00 | 0.00 | 92 | 1011.6 |
| 20260905141345 | 61 | 329 | 2.0 | 6.0 | 0.00 | 0.00 | 0.00 | 93 | 1011.6 |
| 20260905140835 | 60 | 164 | 2.0 | 8.0 | 0.00 | 0.00 | 0.00 | 92 | 1011.6 |
| 20260905140330 | 60 | 278 | 2.0 | 8.0 | 0.00 | 0.00 | 0.00 | 92 | 1011.7 |
| 20260905135825 | 60 | 279 | 2.0 | 6.0 | 0.00 | 0.00 | 0.00 | 92 | 1011.8 |
| 20260905135314 | 60 | 307 | 2.0 | 6.0 | 0.00 | 0.00 | 0.00 | 92 | 1011.7 |
| 20260905134812 | 60 | 26 | 2.0 | 7.0 | 0.00 | 0.00 | 0.00 | 93 | 1011.7 |
| 20260905134311 | 60 | 265 | 2.0 | 7.0 | 0.00 | 0.00 | 0.00 | 92 | 1011.7 |
| 20260905133809 | 60 | 323 | 2.0 | 8.0 | 0.00 | 0.00 | 0.00 | 92 | 1011.7 |
| 20260905133309 | 60 | 300 | 2.0 | 8.0 | 0.00 | 0.00 | 0.00 | 92 | 1011.6 |
| 20260905132814 | 60 | 320 | 2.0 | 6.0 | 0.00 | 0.00 | 0.00 | 92 | 1011.5 |
| 20260905132528 | 60 | 355 | 2.0 | 8.0 | 0.00 | 0.00 | 0.00 | 93 | 1011.5 |
| 20260905131809 | 59 | 311 | 2.0 | 8.0 | 0.00 | 0.00 | 0.00 | 93 | 1011.5 |
| 20260905131307 | 59 | 75 | 2.0 | 6.0 | 0.00 | 0.00 | 0.00 | 94 | 1011.5 |
| 20260905130807 | 59 | 331 | 2.0 | 5.0 | 0.00 | 0.00 | 0.00 | 94 | 1011.5 |
| 20260905130307 | 59 | 315 | 3.0 | 6.0 | 0.00 | 0.00 | 0.00 | 94 | 1011.3 |
| 20260905125807 | 59 | 304 | 2.0 | 6.0 | 0.00 | 0.00 | 0.00 | 94 | 1011.3 |
| 20260905125307 | 58 | 0 | 1.0 | 4.0 | 0.00 | 0.00 | 0.00 | 95 | 1011.4 |
| 20260905124805 | 58 | 286 | 1.0 | 5.0 | 0.00 | 0.00 | 0.00 | 95 | 1011.3 |
| 20260905124305 | 58 | 242 | 2.0 | 5.0 | 0.00 | 0.00 | 0.00 | 95 | 1011.3 |
| 20260905124030 | 58 | 323 | 2.0 | 5.0 | 0.00 | 0.00 | 0.00 | 96 | 1011.2 |
| 20260905123259 | 58 | 277 | 2.0 | 6.0 | 0.00 | 0.00 | 0.00 | 96 | 1011.1 |
| 20260905122752 | 58 | 285 | 3.0 | 8.0 | 0.00 | 0.00 | 0.00 | 96 | 1011.1 |
| 20260905122243 | 58 | 327 | 3.0 | 8.0 | 0.00 | 0.00 | 0.00 | 96 | 1011.0 |
| 20260905121736 | 57 | 15 | 2.0 | 8.0 | 0.00 | 0.00 | 0.00 | 97 | 1011.0 |
| 20260905121452 | 57 | 347 | 3.0 | 9.0 | 0.00 | 0.00 | 0.00 | 97 | 1011.1 |
| 20260905120720 | 57 | 345 | 3.0 | 9.0 | 0.00 | 0.00 | 0.00 | 97 | 1011.1 |
| 20260905120214 | 57 | 308 | 3.0 | 8.0 | 0.00 | 0.00 | 0.00 | 97 | 1011.0 |
| 20260905115711 | 57 | 53 | 3.0 | 8.0 | 0.00 | 0.00 | 0.00 | 97 | 1010.9 |
| 20260905115210 | 57 | 329 | 3.0 | 8.0 | 0.00 | 0.00 | 0.00 | 97 | 1010.9 |
| 20260905114711 | 56 | 289 | 3.0 | 8.0 | 0.00 | 0.00 | 0.00 | 97 | 1010.8 |
| 20260905114211 | 56 | 333 | 3.0 | 8.0 | 0.00 | 0.00 | 0.00 | 97 | 1010.8 |
| 20260905113710 | 56 | 355 | 3.0 | 8.0 | 0.00 | 0.00 | 0.00 | 98 | 1010.7 |
| 20260905113211 | 56 | 300 | 3.0 | 6.0 | 0.00 | 0.00 | 0.00 | 98 | 1010.8 |
| 20260905112711 | 56 | 286 | 3.0 | 9.0 | 0.00 | 0.00 | 0.00 | 98 | 1010.8 |
| 20260905112211 | 55 | 306 | 2.0 | 9.0 | 0.00 | 0.00 | 0.00 | 98 | 1010.7 |
| 20260905111933 | 55 | 264 | 1.0 | 5.0 | 0.00 | 0.00 | 0.00 | 97 | 1010.6 |
| 20260905111211 | 55 | 326 | 1.0 | 4.0 | 0.00 | 0.00 | 0.00 | 98 | 1010.6 |
| 20260905110710 | 55 | 5 | 2.0 | 7.0 | 0.00 | 0.00 | 0.00 | 98 | 1010.5 |
| 20260905110209 | 55 | 355 | 2.0 | 7.0 | 0.00 | 0.00 | 0.00 | 97 | 1010.5 |
| 20260905105206 | 55 | 329 | 3.0 | 6.0 | 0.00 | 0.00 | 0.00 | 98 | 1010.5 |
| 20260905104700 | 54 | 305 | 2.0 | 6.0 | 0.00 | 0.00 | 0.00 | 97 | 1010.5 |
| 20260905104155 | 55 | 21 | 2.0 | 6.0 | 0.00 | 0.00 | 0.00 | 98 | 1010.4 |
| 20260905103652 | 55 | 90 | 2.0 | 6.0 | 0.00 | 0.00 | 0.00 | 97 | 1010.4 |
| 20260905103152 | 55 | 5 | 2.0 | 5.0 | 0.00 | 0.00 | 0.00 | 97 | 1010.2 |
| 20260905102652 | 55 | 18 | 2.0 | 5.0 | 0.00 | 0.00 | 0.00 | 97 | 1010.1 |
| 20260905102153 | 55 | 351 | 1.0 | 4.0 | 0.00 | 0.00 | 0.00 | 97 | 1010.0 |
| 20260905101653 | 55 | 350 | 1.0 | 4.0 | 0.00 | 0.00 | 0.00 | 97 | 1010.1 |
| 20260905101153 | 55 | 292 | 2.0 | 4.0 | 0.00 | 0.00 | 0.00 | 98 | 1010.0 |
| 20260905100653 | 55 | 297 | 2.0 | 6.0 | 0.00 | 0.00 | 0.00 | 98 | 1010.0 |
| 20260905100152 | 55 | 9 | 3.0 | 8.0 | 0.00 | 0.00 | 0.00 | 98 | 1010.2 |
| 20260905095653 | 55 | 313 | 3.0 | 8.0 | 0.00 | 0.00 | 0.00 | 98 | 1010.1 |
| 20260905095153 | 55 | 36 | 3.0 | 8.0 | 0.00 | 0.00 | 0.00 | 98 | 1010.1 |
| 20260905094653 | 55 | 305 | 3.0 | 9.0 | 0.00 | 0.00 | 0.00 | 97 | 1009.9 |
| 20260905094153 | 55 | 355 | 3.0 | 9.0 | 0.00 | 0.00 | 0.00 | 97 | 1010.0 |
| 20260905093653 | 55 | 323 | 2.0 | 8.0 | 0.00 | 0.00 | 0.00 | 97 | 1010.0 |
| 20260905093153 | 55 | 306 | 2.0 | 8.0 | 0.00 | 0.00 | 0.00 | 97 | 1010.0 |
| 20260905092653 | 55 | 345 | 2.0 | 5.0 | 0.00 | 0.00 | 0.00 | 97 | 1010.0 |
| 20260905092152 | 55 | 24 | 2.0 | 6.0 | 0.00 | 0.00 | 0.00 | 97 | 1010.0 |
| 20260905091653 | 55 | 334 | 3.0 | 8.0 | 0.00 | 0.00 | 0.00 | 97 | 1009.9 |
| 20260905091153 | 55 | 335 | 2.0 | 8.0 | 0.00 | 0.00 | 0.00 | 97 | 1009.9 |
| 20260905090654 | 55 | 341 | 3.0 | 9.0 | 0.00 | 0.00 | 0.00 | 97 | 1009.9 |
| 20260905090154 | 55 | 334 | 4.0 | 9.0 | 0.00 | 0.00 | 0.00 | 97 | 1009.8 |
| 20260905085654 | 55 | 311 | 4.0 | 9.0 | 0.00 | 0.00 | 0.00 | 97 | 1009.9 |
| 20260905085426 | 55 | 325 | 3.0 | 8.0 | 0.00 | 0.00 | 0.00 | 97 | 1010.0 |
| 20260905084654 | 55 | 5 | 3.0 | 8.0 | 0.00 | 0.00 | 0.00 | 97 | 1010.0 |
| 20260905084154 | 55 | 19 | 3.0 | 8.0 | 0.00 | 0.00 | 0.00 | 97 | 1010.0 |
| 20260905083650 | 55 | 305 | 3.0 | 8.0 | 0.00 | 0.00 | 0.00 | 97 | 1009.9 |
| 20260905083149 | 55 | 69 | 2.0 | 8.0 | 0.00 | 0.00 | 0.00 | 97 | 1010.0 |
| 20260905082648 | 55 | 29 | 1.0 | 7.0 | 0.00 | 0.00 | 0.00 | 97 | 1009.9 |
| 20260905082146 | 55 | 321 | 1.0 | 4.0 | 0.00 | 0.00 | 0.00 | 97 | 1009.9 |
| 20260905081645 | 55 | 307 | 1.0 | 3.0 | 0.00 | 0.00 | 0.00 | 97 | 1009.8 |
| 20260905081144 | 55 | 308 | 1.0 | 5.0 | 0.00 | 0.00 | 0.00 | 97 | 1009.8 |
| 20260905080643 | 55 | 351 | 2.0 | 6.0 | 0.00 | 0.00 | 0.00 | 97 | 1009.8 |
| 20260905080141 | 55 | 310 | 2.0 | 6.0 | 0.00 | 0.00 | 0.00 | 97 | 1009.8 |
| 20260905075641 | 56 | 331 | 2.0 | 6.0 | 0.00 | 0.00 | 0.00 | 97 | 1009.9 |
| 20260905075140 | 56 | 5 | 2.0 | 7.0 | 0.00 | 0.00 | 0.00 | 97 | 1009.9 |
| 20260905074640 | 55 | 343 | 2.0 | 7.0 | 0.00 | 0.00 | 0.00 | 97 | 1010.0 |
| 20260905074138 | 55 | 314 | 2.0 | 6.0 | 0.00 | 0.00 | 0.00 | 97 | 1010.0 |
| 20260905073638 | 55 | 300 | 2.0 | 8.0 | 0.00 | 0.00 | 0.00 | 97 | 1010.0 |
| 20260905073137 | 55 | 344 | 2.0 | 8.0 | 0.00 | 0.00 | 0.00 | 97 | 1010.0 |
| 20260905072631 | 55 | 306 | 2.0 | 8.0 | 0.00 | 0.00 | 0.00 | 97 | 1010.0 |
| 20260905072125 | 55 | 0 | 2.0 | 8.0 | 0.00 | 0.00 | 0.00 | 97 | 1010.0 |
| 20260905071620 | 55 | 0 | 1.0 | 8.0 | 0.00 | 0.00 | 0.00 | 97 | 1010.0 |
| 20260905071120 | 55 | 336 | 2.0 | 8.0 | 0.00 | 0.00 | 0.00 | 97 | 1010.1 |
| 20260905070618 | 55 | 309 | 2.0 | 8.0 | 0.00 | 0.00 | 0.00 | 97 | 1010.1 |
| 20260905070118 | 55 | 328 | 1.0 | 5.0 | 0.00 | 0.00 | 0.00 | 97 | 1010.1 |
| 20260905065616 | 55 | 328 | 1.0 | 5.0 | 0.00 | 0.00 | 0.00 | 97 | 1010.2 |
| 20260905065118 | 54 | 321 | 2.0 | 5.0 | 0.00 | 0.00 | 0.00 | 97 | 1010.2 |
| 20260905064838 | 55 | 315 | 2.0 | 5.0 | 0.00 | 0.00 | 0.00 | 97 | 1010.1 |
| 20260905064333 | 55 | 322 | 2.0 | 5.0 | 0.00 | 0.00 | 0.00 | 97 | 1010.2 |
| 20260905063614 | 55 | 26 | 1.0 | 4.0 | 0.00 | 0.00 | 0.00 | 96 | 1010.4 |
| 20260905063335 | 55 | 26 | 1.0 | 3.0 | 0.00 | 0.00 | 0.00 | 97 | 1010.4 |
| 20260905062836 | 55 | 40 | 1.0 | 3.0 | 0.00 | 0.00 | 0.00 | 97 | 1010.4 |
| 20260905062108 | 55 | 41 | 1.0 | 3.0 | 0.00 | 0.00 | 0.00 | 96 | 1010.4 |
| 20260905061609 | 56 | 40 | 1.0 | 3.0 | 0.00 | 0.00 | 0.00 | 97 | 1010.4 |
| 20260905061109 | 56 | 40 | 1.0 | 3.0 | 0.00 | 0.00 | 0.00 | 97 | 1010.4 |
| 20260905060608 | 56 | 40 | 1.0 | 3.0 | 0.00 | 0.00 | 0.00 | 97 | 1010.5 |
| 20260905060107 | 56 | 26 | 1.0 | 3.0 | 0.00 | 0.00 | 0.00 | 97 | 1010.4 |
| 20260905055559 | 56 | 26 | 1.0 | 3.0 | 0.00 | 0.00 | 0.00 | 97 | 1010.5 |
| 20260905055053 | 55 | 26 | 0.0 | 2.0 | 0.00 | 0.00 | 0.00 | 96 | 1010.5 |
| 20260905054549 | 55 | 26 | 1.0 | 2.0 | 0.00 | 0.00 | 0.00 | 96 | 1010.4 |
| 20260905054048 | 55 | 26 | 0.0 | 2.0 | 0.00 | 0.00 | 0.00 | 96 | 1010.4 |
| 20260905053546 | 56 | 26 | 0.0 | 2.0 | 0.00 | 0.00 | 0.00 | 96 | 1010.5 |
| 20260905053305 | 56 | 26 | 1.0 | 3.0 | 0.00 | 0.00 | 0.00 | 95 | 1010.5 |
| 20260905052544 | 56 | 26 | 0.0 | 3.0 | 0.00 | 0.00 | 0.00 | 95 | 1010.5 |
| 20260905052040 | 57 | 17 | 1.0 | 3.0 | 0.00 | 0.00 | 0.00 | 95 | 1010.5 |
| 20260905051036 | 57 | 17 | 3.0 | 10.0 | 0.00 | 0.00 | 0.00 | 96 | 1010.6 |
| 20260905050756 | 58 | 250 | 5.0 | 10.0 | 0.00 | 0.00 | 0.00 | 97 | 1010.5 |
| 20260905050033 | 57 | 252 | 5.0 | 9.0 | 0.00 | 0.00 | 0.00 | 97 | 1010.5 |
| 20260905045533 | 57 | 247 | 4.0 | 9.0 | 0.00 | 0.00 | 0.00 | 96 | 1010.5 |
| 20260905045259 | 56 | 246 | 3.0 | 7.0 | 0.00 | 0.00 | 0.00 | 96 | 1010.5 |
| 20260905044534 | 56 | 269 | 2.0 | 7.0 | 0.00 | 0.00 | 0.00 | 96 | 1010.6 |
| 20260905044034 | 56 | 248 | 2.0 | 6.0 | 0.00 | 0.00 | 0.00 | 96 | 1010.7 |
| 20260905043535 | 56 | 263 | 2.0 | 7.0 | 0.00 | 0.00 | 0.00 | 96 | 1010.6 |
| 20260905043035 | 55 | 274 | 2.0 | 7.0 | 0.00 | 0.00 | 0.00 | 96 | 1010.6 |
| 20260905042526 | 55 | 258 | 2.0 | 4.0 | 0.00 | 0.00 | 0.00 | 96 | 1010.7 |
| 20260905042020 | 56 | 248 | 3.0 | 6.0 | 0.00 | 0.00 | 0.00 | 96 | 1010.8 |
| 20260905041514 | 56 | 257 | 2.0 | 6.0 | 0.00 | 0.00 | 0.00 | 96 | 1010.8 |
| 20260905041004 | 56 | 259 | 1.0 | 4.0 | 0.00 | 0.00 | 0.00 | 95 | 1010.7 |
| 20260905040457 | 56 | 286 | 1.0 | 4.0 | 0.00 | 0.00 | 0.00 | 95 | 1010.8 |
| 20260905035952 | 56 | 279 | 0.0 | 4.0 | 0.00 | 0.00 | 0.00 | 95 | 1010.8 |
| 20260905035442 | 56 | 290 | 0.0 | 2.0 | 0.00 | 0.00 | 0.00 | 95 | 1010.9 |
| 20260905034936 | 56 | 290 | 0.0 | 2.0 | 0.00 | 0.00 | 0.00 | 95 | 1011.0 |
| 20260905034655 | 57 | 290 | 0.0 | 3.0 | 0.00 | 0.00 | 0.00 | 95 | 1011.0 |
| 20260905033928 | 57 | 289 | 1.0 | 3.0 | 0.00 | 0.00 | 0.00 | 95 | 1011.0 |
| 20260905033429 | 56 | 281 | 0.0 | 2.0 | 0.00 | 0.00 | 0.00 | 95 | 1011.0 |
| 20260905033149 | 56 | 281 | 0.0 | 2.0 | 0.00 | 0.00 | 0.00 | 94 | 1011.0 |
| 20260905032428 | 57 | 0 | 0.0 | 2.0 | 0.00 | 0.00 | 0.00 | 94 | 1010.9 |
| 20260905032145 | 57 | 0 | 1.0 | 3.0 | 0.00 | 0.00 | 0.00 | 94 | 1011.0 |
| 20260905031425 | 57 | 0 | 0.0 | 3.0 | 0.00 | 0.00 | 0.00 | 94 | 1010.9 |
| 20260905030922 | 57 | 0 | 1.0 | 3.0 | 0.00 | 0.00 | 0.00 | 93 | 1011.0 |
| 20260905030421 | 57 | 0 | 1.0 | 3.0 | 0.00 | 0.00 | 0.00 | 93 | 1010.9 |
| 20260905025921 | 57 | 0 | 1.0 | 3.0 | 0.00 | 0.00 | 0.00 | 92 | 1011.1 |
| 20260905025420 | 58 | 5 | 0.0 | 2.0 | 0.00 | 0.00 | 0.00 | 91 | 1011.0 |
| 20260905024918 | 58 | 5 | 0.0 | 2.0 | 0.00 | 0.00 | 0.00 | 91 | 1011.1 |
| 20260905024416 | 59 | 5 | 1.0 | 2.0 | 0.00 | 0.00 | 0.00 | 89 | 1010.9 |
| 20260905023915 | 60 | 5 | 1.0 | 3.0 | 0.00 | 0.00 | 0.00 | 88 | 1010.9 |
| 20260905023415 | 60 | 5 | 1.0 | 6.0 | 0.00 | 0.00 | 0.00 | 88 | 1010.8 |
| 20260905022914 | 60 | 5 | 1.0 | 6.0 | 0.00 | 0.00 | 0.00 | 87 | 1010.8 |
| 20260905022412 | 60 | 257 | 1.0 | 4.0 | 0.00 | 0.00 | 0.00 | 87 | 1010.9 |
| 20260905022128 | 60 | 288 | 1.0 | 4.0 | 0.00 | 0.00 | 0.00 | 88 | 1010.9 |
| 20260905021400 | 60 | 294 | 1.0 | 3.0 | 0.00 | 0.00 | 0.00 | 88 | 1011.0 |
| 20260905020849 | 60 | 355 | 1.0 | 3.0 | 0.00 | 0.00 | 0.00 | 88 | 1010.8 |
| 20260905020343 | 60 | 0 | 1.0 | 3.0 | 0.00 | 0.00 | 0.00 | 87 | 1010.9 |
| 20260905015838 | 61 | 24 | 1.0 | 4.0 | 0.00 | 0.00 | 0.00 | 85 | 1011.0 |
| 20260905015558 | 62 | 25 | 2.0 | 4.0 | 0.00 | 0.00 | 0.00 | 84 | 1011.0 |
| 20260905014826 | 62 | 38 | 2.0 | 10.0 | 0.00 | 0.00 | 0.00 | 84 | 1011.1 |
| 20260905014326 | 62 | 317 | 2.0 | 10.0 | 0.00 | 0.00 | 0.00 | 84 | 1011.1 |
| 20260905013824 | 62 | 87 | 2.0 | 6.0 | 0.00 | 0.00 | 0.00 | 84 | 1011.0 |
| 20260905013324 | 62 | 259 | 2.0 | 6.0 | 0.00 | 0.00 | 0.00 | 85 | 1011.0 |
| 20260905012824 | 62 | 304 | 2.0 | 5.0 | 0.00 | 0.00 | 0.00 | 84 | 1011.1 |
| 20260905012325 | 62 | 282 | 2.0 | 4.0 | 0.00 | 0.00 | 0.00 | 84 | 1011.0 |
| 20260905011825 | 62 | 279 | 2.0 | 8.0 | 0.00 | 0.00 | 0.00 | 84 | 1011.0 |
| 20260905011324 | 62 | 298 | 3.0 | 8.0 | 0.00 | 0.00 | 0.00 | 84 | 1011.1 |
| 20260905010824 | 62 | 355 | 3.0 | 9.0 | 0.00 | 0.00 | 0.00 | 83 | 1011.0 |
| 20260905005822 | 62 | 236 | 3.0 | 11.0 | 0.00 | 0.00 | 0.00 | 86 | 1010.9 |
| 20260905004819 | 62 | 250 | 2.0 | 6.0 | 0.00 | 0.00 | 0.00 | 86 | 1011.0 |
| 20260905004320 | 62 | 272 | 2.0 | 6.0 | 0.00 | 0.00 | 0.00 | 86 | 1011.0 |
| 20260905003820 | 63 | 319 | 2.0 | 6.0 | 0.00 | 0.00 | 0.00 | 84 | 1011.0 |
| 20260905003320 | 63 | 246 | 2.0 | 7.0 | 0.00 | 0.00 | 0.00 | 83 | 1011.1 |
| 20260905003045 | 63 | 260 | 2.0 | 7.0 | 0.00 | 0.00 | 0.00 | 83 | 1011.1 |
| 20260905002539 | 63 | 288 | 2.0 | 7.0 | 0.00 | 0.00 | 0.00 | 84 | 1011.0 |
| 20260905002041 | 63 | 223 | 2.0 | 7.0 | 0.00 | 0.00 | 0.00 | 84 | 1011.0 |
| 20260905001316 | 63 | 297 | 1.0 | 6.0 | 0.00 | 0.00 | 0.00 | 85 | 1011.0 |
| 20260905001043 | 63 | 272 | 1.0 | 6.0 | 0.00 | 0.00 | 0.00 | 85 | 1011.0 |
| 20260905000318 | 64 | 265 | 1.0 | 4.0 | 0.00 | 0.00 | 0.00 | 84 | 1010.9 |
| 20260904235816 | 64 | 266 | 2.0 | 4.0 | 0.00 | 0.00 | 0.00 | 83 | 1010.9 |
| 20260904235316 | 64 | 257 | 3.0 | 7.0 | 0.00 | 0.00 | 0.00 | 84 | 1010.8 |
| 20260904234814 | 64 | 279 | 3.0 | 9.0 | 0.00 | 0.00 | 0.00 | 83 | 1010.7 |
| 20260904234538 | 64 | 226 | 3.0 | 9.0 | 0.00 | 0.00 | 0.00 | 83 | 1010.7 |
| 20260904233814 | 64 | 238 | 3.0 | 7.0 | 0.00 | 0.00 | 0.00 | 82 | 1010.6 |
| 20260904233311 | 64 | 238 | 2.0 | 7.0 | 0.00 | 0.00 | 0.00 | 82 | 1010.6 |
| 20260904232812 | 64 | 300 | 2.0 | 7.0 | 0.00 | 0.00 | 0.00 | 83 | 1010.6 |
| 20260904232312 | 64 | 257 | 2.0 | 6.0 | 0.00 | 0.00 | 0.00 | 83 | 1010.5 |
| 20260904231808 | 64 | 237 | 3.0 | 8.0 | 0.00 | 0.00 | 0.00 | 83 | 1010.6 |
| 20260904231308 | 65 | 210 | 2.0 | 8.0 | 0.00 | 0.00 | 0.00 | 81 | 1010.5 |
| 20260904230808 | 65 | 228 | 2.0 | 8.0 | 0.00 | 0.00 | 0.00 | 81 | 1010.5 |
| 20260904230307 | 65 | 286 | 2.0 | 8.0 | 0.00 | 0.00 | 0.00 | 81 | 1010.6 |
| 20260904225808 | 65 | 211 | 3.0 | 8.0 | 0.00 | 0.00 | 0.00 | 80 | 1010.7 |
| 20260904224806 | 66 | 255 | 3.0 | 7.0 | 0.00 | 0.00 | 0.00 | 79 | 1010.8 |
| 20260904224304 | 66 | 234 | 3.0 | 9.0 | 0.00 | 0.00 | 0.00 | 78 | 1010.8 |
| 20260904223802 | 66 | 344 | 3.0 | 9.0 | 0.00 | 0.00 | 0.00 | 78 | 1010.7 |
| 20260904223259 | 66 | 281 | 2.0 | 10.0 | 0.00 | 0.00 | 0.00 | 78 | 1010.7 |
| 20260904222758 | 66 | 237 | 2.0 | 10.0 | 0.00 | 0.00 | 0.00 | 76 | 1010.5 |
| 20260904222255 | 66 | 323 | 3.0 | 11.0 | 0.00 | 0.00 | 0.00 | 76 | 1010.5 |
| 20260904221754 | 67 | 262 | 4.0 | 11.0 | 0.00 | 0.00 | 0.00 | 76 | 1010.6 |
| 20260904221254 | 67 | 223 | 3.0 | 9.0 | 0.00 | 0.00 | 0.00 | 76 | 1010.6 |
| 20260904221016 | 67 | 298 | 3.0 | 9.0 | 0.00 | 0.00 | 0.00 | 75 | 1010.6 |
| 20260904220252 | 68 | 251 | 3.0 | 9.0 | 0.00 | 0.00 | 0.00 | 74 | 1010.5 |
| 20260904215752 | 68 | 198 | 4.0 | 8.0 | 0.00 | 0.00 | 0.00 | 74 | 1010.4 |
| 20260904215252 | 67 | 233 | 3.0 | 8.0 | 0.00 | 0.00 | 0.00 | 74 | 1010.5 |
| 20260904214752 | 67 | 283 | 3.0 | 8.0 | 0.00 | 0.00 | 0.00 | 74 | 1010.5 |
| 20260904214252 | 67 | 325 | 3.0 | 9.0 | 0.00 | 0.00 | 0.00 | 75 | 1010.6 |
| 20260904213754 | 67 | 243 | 4.0 | 12.0 | 0.00 | 0.00 | 0.00 | 74 | 1010.5 |
| 20260904213250 | 68 | 190 | 4.0 | 12.0 | 0.00 | 0.00 | 0.00 | 75 | 1010.4 |
| 20260904212750 | 68 | 276 | 3.0 | 9.0 | 0.00 | 0.00 | 0.00 | 74 | 1010.4 |
| 20260904212250 | 68 | 221 | 3.0 | 13.0 | 0.00 | 0.00 | 0.00 | 72 | 1010.4 |
| 20260904211750 | 68 | 248 | 3.0 | 13.0 | 0.00 | 0.00 | 0.00 | 72 | 1010.4 |
| 20260904211250 | 69 | 259 | 2.0 | 9.0 | 0.00 | 0.00 | 0.00 | 70 | 1010.5 |
| 20260904210748 | 69 | 264 | 2.0 | 9.0 | 0.00 | 0.00 | 0.00 | 70 | 1010.5 |
| 20260904210244 | 69 | 264 | 3.0 | 9.0 | 0.00 | 0.00 | 0.00 | 75 | 1010.4 |
| 20260904210008 | 69 | 331 | 3.0 | 9.0 | 0.00 | 0.00 | 0.00 | 69 | 1010.5 |
| 20260904205243 | 69 | 306 | 3.0 | 9.0 | 0.00 | 0.00 | 0.00 | 70 | 1010.6 |
| 20260904204743 | 69 | 259 | 3.0 | 9.0 | 0.00 | 0.00 | 0.00 | 71 | 1010.6 |
| 20260904204244 | 69 | 215 | 3.0 | 9.0 | 0.00 | 0.00 | 0.00 | 69 | 1010.6 |
| 20260904203744 | 70 | 309 | 3.0 | 8.0 | 0.00 | 0.00 | 0.00 | 67 | 1010.6 |
| 20260904203502 | 70 | 250 | 3.0 | 10.0 | 0.00 | 0.00 | 0.00 | 68 | 1010.6 |
| 20260904202743 | 70 | 269 | 4.0 | 10.0 | 0.00 | 0.00 | 0.00 | 71 | 1010.7 |
| 20260904202240 | 70 | 229 | 4.0 | 10.0 | 0.00 | 0.00 | 0.00 | 67 | 1010.7 |
| 20260904201739 | 70 | 259 | 4.0 | 10.0 | 0.00 | 0.00 | 0.00 | 66 | 1010.7 |
| 20260904201240 | 70 | 216 | 4.0 | 11.0 | 0.00 | 0.00 | 0.00 | 65 | 1010.6 |
| 20260904200740 | 70 | 290 | 4.0 | 11.0 | 0.00 | 0.00 | 0.00 | 67 | 1010.7 |
| 20260904200240 | 70 | 272 | 4.0 | 13.0 | 0.00 | 0.00 | 0.00 | 68 | 1010.7 |
| 20260904195744 | 70 | 16 | 6.0 | 13.0 | 0.00 | 0.00 | 0.00 | 66 | 1010.7 |
| 20260904195239 | 69 | 335 | 6.0 | 15.0 | 0.00 | 0.00 | 0.00 | 65 | 1010.7 |
| 20260904194740 | 70 | 242 | 5.0 | 15.0 | 0.00 | 0.00 | 0.00 | 63 | 1010.8 |
| 20260904194235 | 71 | 248 | 5.0 | 18.0 | 0.00 | 0.00 | 0.00 | 63 | 1010.7 |
| 20260904193736 | 72 | 14 | 5.0 | 18.0 | 0.00 | 0.00 | 0.00 | 60 | 1010.8 |
| 20260904193235 | 72 | 32 | 5.0 | 15.0 | 0.00 | 0.00 | 0.00 | 61 | 1010.7 |
| 20260904192733 | 71 | 252 | 5.0 | 14.0 | 0.00 | 0.00 | 0.00 | 62 | 1010.7 |
| 20260904192232 | 71 | 346 | 5.0 | 18.0 | 0.00 | 0.00 | 0.00 | 62 | 1010.7 |
| 20260904191731 | 71 | 289 | 4.0 | 18.0 | 0.00 | 0.00 | 0.00 | 61 | 1010.7 |
| 20260904191232 | 71 | 238 | 4.0 | 10.0 | 0.00 | 0.00 | 0.00 | 59 | 1010.8 |
| 20260904190732 | 72 | 254 | 6.0 | 12.0 | 0.00 | 0.00 | 0.00 | 65 | 1010.9 |
| 20260904190234 | 69 | 297 | 5.0 | 12.0 | 0.00 | 0.00 | 0.00 | 70 | 1010.9 |
| 20260904185732 | 70 | 236 | 4.0 | 12.0 | 0.00 | 0.00 | 0.00 | 69 | 1010.9 |
| 20260904185230 | 70 | 252 | 5.0 | 13.0 | 0.00 | 0.00 | 0.00 | 67 | 1011.0 |
| 20260904184953 | 71 | 294 | 5.0 | 13.0 | 0.00 | 0.00 | 0.00 | 66 | 1011.0 |